[[{"header":{"parameterUnit":"m.s-1","parameterCategory":1,"la1":30.2991,"la2":30.254,"lo1":-89.0895,"lo2":-89.0444,"dy":0.0017,"dx":0.0017,"nx":28,"ny":28,"refTime":"2025-01-26T09:00:00:Z","depth":0,"parameterNumber":2,"parameterNumberName":"U-component_of_WINDS"},"data":[0,0,0,0,0,0,0,0,0,0,0,0,0,0,0,0,0,0,0,0,0,0,0,0,0,0,0,0,0,0,0,0,0,0,0,0,0,0,0,0,0,0,0,0,0,0,0,0,0,0,0,0,0,0,0,0,0,0,-4.5949,-4.5948,0,-4.5933,-4.5932,-4.5932,-4.5778,-4.5774,-4.577,-4.5766,-4.5751,-4.5754,-4.5757,0,0,0,0,0,0,0,0,0,0,0,0,0,-4.5847,-4.585,-4.5949,-4.5948,-4.5948,-4.5933,-4.5932,-4.5932,-4.5778,-4.5774,-4.5769,-4.5765,-4.575,-4.5754,-4.5758,0,0,0,0,0,0,0,0,0,0,0,0,0,-4.5867,-4.5851,-4.5949,-4.587,-4.5862,-4.5933,-4.5932,-4.5932,-4.5779,-4.5774,-4.5768,-4.5762,-4.5749,-4.5753,-4.5758,-4.5903,0,0,-4.5773,-4.5775,0,0,0,0,0,0,0,0,-4.5866,-4.5871,-4.5881,-4.5875,-4.5867,-4.5851,-4.5891,-4.5923,-4.5781,-4.5811,-4.5766,-4.576,-4.5789,-4.579,-4.58,-4.5903,-4.5902,-4.5773,-4.5776,-4.5778,-4.5779,0,0,0,0,0,0,0,-4.5865,-4.5871,-4.5942,-4.5882,-4.5873,-4.5835,-4.5832,-4.5896,-4.5833,-4.5808,-4.5797,-4.5797,-4.5784,-4.5796,-4.5798,-4.5902,-4.5773,-4.5777,-4.578,-4.5782,-4.6122,-4.6127,0,0,0,0,0,0,-4.5875,-4.5871,-4.5943,-4.5942,-4.5852,-4.5842,-4.5838,-4.5862,-4.5832,-4.5821,-4.5802,-4.579,-4.579,-4.5793,-4.5797,-4.5964,-4.5778,-4.5783,-4.5785,-4.6116,-4.6123,-4.613,0,0,0,0,0,0,-4.5873,-4.5882,-4.5943,-4.5903,-4.5908,-4.585,-4.5878,-4.5865,-4.5876,-4.5827,-4.5815,-4.5825,-4.5786,-4.5791,-4.5878,-4.5961,-4.5785,-4.5789,-4.6108,-4.6118,-4.6126,-4.6299,0,0,0,0,0,0,-4.5871,-4.5883,-4.5937,-4.5906,-4.5911,-4.6024,-4.5883,-4.5869,-4.5885,-4.5869,-4.5846,-4.5836,-4.5782,-4.5871,-4.5883,-4.5964,-4.5793,-4.61,-4.6113,-4.6123,-4.6285,-4.6313,-4.6336,0,0,0,0,0,-4.5868,-4.5987,-4.5941,-4.595,-4.5977,-4.6029,-4.6032,-4.5967,-4.5892,-4.5946,-4.5914,-4.5837,-4.5951,-4.5882,-4.5893,-4.5978,-4.6095,-4.6109,-4.6123,-4.6274,-4.6308,-4.6336,0,0,0,0,0,0,-4.603,-4.5981,-4.5929,-4.6042,-4.6041,-4.6003,-4.6069,-4.6005,-4.6025,-4.6009,-4.5928,-4.5924,-4.6023,-4.6009,-4.5933,-4.6116,-4.6009,-4.6026,-4.6121,-4.6152,-4.6177,-4.6177,-4.5797,0,0,0,0,0,-4.6079,-4.6125,-4.608,-4.6184,-4.6186,-4.6129,-4.6149,-4.6098,-4.6094,-4.6093,-4.6067,-4.6067,-4.6101,-4.6126,-4.6156,-4.6284,-4.6276,-4.6347,-4.6373,-4.6394,-4.6409,-4.6474,-4.6505,-4.6175,-4.6175,-4.6175,0,0,-4.6181,-4.616,-4.6194,-4.6216,-4.6209,-4.6258,-4.6129,-4.6187,-4.6222,-4.6101,-4.6181,-4.6164,-4.6157,-4.6265,-4.6311,-4.6256,-4.6498,-4.6412,-4.6429,-4.6432,-4.6491,-4.6522,-4.655,-4.6184,-4.6183,-4.6181,0,0,-4.639,-4.638,-4.6464,-4.646,-4.6451,-4.6412,-4.6433,-4.6405,-4.6388,-4.6467,-4.6377,-4.6419,-4.6482,-4.648,-4.6488,-4.6698,-4.6627,-4.6711,-4.6843,-4.6907,-4.6933,-4.6955,-4.7028,-4.7056,-4.6726,-4.6726,-4.6727,0,-4.6517,-4.6587,-4.6515,-4.6579,-4.6591,-4.6484,-4.6569,-4.6568,-4.6571,-4.6582,-4.6521,-4.6597,-4.6585,-4.669,-4.6741,-4.6752,-4.6772,-4.6711,-4.6935,-4.6957,-4.6977,-4.7045,-4.7073,-4.6736,-4.6735,-4.6734,-4.6733,0,-4.6742,-4.6793,-4.6862,-4.6866,-4.6886,-4.696,-4.69,-4.6929,-4.6878,-4.6846,-4.6928,-4.691,-4.6934,-4.6956,-4.6907,-4.7054,-4.702,-4.6949,-4.684,-4.7019,-4.7082,-4.7108,-4.6751,-4.6747,-4.6744,-4.6742,0,0,-4.7051,-4.7015,-4.7042,-4.7041,-4.7025,-4.7062,-4.7132,-4.7154,-4.718,-4.7187,-4.7242,-4.7298,-4.7231,-4.724,-4.719,-4.7247,-4.7413,-4.7168,-4.7166,-4.7212,-4.7572,-4.7624,-4.7656,-4.7367,-4.7372,-4.7375,-4.7572,0,-4.7251,-4.7366,-4.7304,-4.7428,-4.7472,-4.7373,-4.7433,-4.7429,-4.7402,-4.7436,-4.7405,-4.7446,-4.7356,-4.736,-4.7412,-4.7382,-4.7483,-4.7367,-4.7416,-4.7419,-4.7418,-4.7689,-4.7745,-4.7931,-4.7597,-4.7601,-4.7604,0,-4.7498,-4.7513,-4.7642,-4.7615,-4.7632,-4.7687,-4.7703,-4.7737,-4.7731,-4.7707,-4.7718,-4.7654,-4.7721,-4.7615,-4.7705,-4.7627,-4.7644,-4.7633,-4.7638,-4.7638,-4.752,-4.7694,-4.7989,-4.8016,-4.7642,-4.7639,-4.7636,0,-4.7708,-4.7761,-4.7843,-4.7847,-4.7819,-4.786,-4.7851,-4.7839,-4.7857,-4.7872,-4.7882,-4.7905,-4.7917,-4.7936,-4.788,-4.7809,-4.7977,-4.7867,-4.7958,-4.796,-4.7995,-4.7993,-4.8295,-4.8012,-4.8012,-4.8011,-4.801,0,-4.7935,-4.8017,-4.7937,-4.7988,-4.8076,-4.8005,-4.8095,-4.8075,-4.8066,-4.8111,-4.8028,-4.8072,-4.7997,-4.8034,-4.7991,-4.8071,-4.8078,-4.806,-4.8047,-4.8066,-4.8068,-4.8073,-4.8058,-4.8018,-4.8017,-4.8015,-4.8014,0,-4.8183,-4.8133,-4.8216,-4.8183,-4.8177,-4.8244,-4.8215,-4.8261,-4.8228,-4.8287,-4.8296,-4.8245,-4.8284,-4.8231,-4.8266,-4.8237,-4.8346,-4.8315,-4.8348,-4.8337,-4.843,-4.8421,-4.8743,-4.8781,-4.8477,-4.848,-4.8483,0,-4.833,-4.839,-4.8364,-4.8387,-4.8383,-4.8423,-4.844,-4.8373,-4.8395,-4.8393,-4.8439,-4.8472,-4.8493,-4.8561,-4.8527,-4.8552,-4.852,-4.8631,-4.8523,-4.854,-4.8518,-4.8514,-4.8519,-4.8652,-4.8656,-4.8659,-4.8661,0,-4.8595,-4.8567,-4.8595,-4.8615,-4.8638,-4.8651,-4.8657,-4.8682,-4.8612,-4.8641,-4.8679,-4.8697,-4.8731,-4.8764,-4.8781,-4.8771,-4.8705,-4.8696,-4.8718,-4.8736,-4.8751,-4.8742,-4.8405,-4.8688,-4.8686,-4.8684,-4.8682,-4.8681,-4.8794,-4.8843,-4.8831,-4.8865,-4.8863,-4.8871,-4.8912,-4.8885,-4.8916,-4.8938,-4.8897,-4.8946,-4.8939,-4.8955,-4.8953,-4.8991,-4.8942,-4.8975,-4.8982,-4.899,-4.9003,-4.8748,-4.8994,-4.8993,-4.8992,-4.8992,-4.8991,0,-4.9053,-4.9041,-4.9073,-4.9084,-4.9111,-4.9047,-4.9051,-4.9078,-4.9121,-4.912,-4.9143,-4.9188,-4.922,-4.9189,-4.9214,-4.925,-4.922,-4.9259,-4.9254,-4.9253,-4.9046,-4.9024,-4.9283,-4.9283,-4.9282,-4.9282,-4.9282,-4.9282,-4.919,-4.9268,-4.9239,-4.9316,-4.9303,-4.9349,-4.9357,-4.9364,-4.9362,-4.9416,-4.9441,-4.9421,-4.9408,-4.9432,-4.9458,-4.9448,-4.946,-4.9509,-4.9489,-4.9296,-4.9267,-4.924,-4.9218,-4.9513,-4.9514,-4.9691,-4.9693,-4.9694]},{"header":{"parameterUnit":"m.s-1","parameterCategory":1,"la1":30.2991,"la2":30.254,"lo1":-89.0895,"lo2":-89.0444,"dy":0.0017,"dx":0.0017,"nx":28,"ny":28,"refTime":"2025-01-26T09:00:00:Z","depth":0,"parameterNumber":3,"parameterNumberName":"V-component_of_WINDS"},"data":[0,0,0,0,0,0,0,0,0,0,0,0,0,0,0,0,0,0,0,0,0,0,0,0,0,0,0,0,0,0,0,0,0,0,0,0,0,0,0,0,0,0,0,0,0,0,0,0,0,0,0,0,0,0,0,0,0,0,0.9934,0.9933,0,0.9839,0.9837,0.9836,0.9782,0.9782,0.9782,0.9782,0.9679,0.9677,0.9674,0,0,0,0,0,0,0,0,0,0,0,0,0,1.0066,1.0064,0.9934,0.9933,0.9931,0.9839,0.9837,0.9836,0.9782,0.9782,0.9782,0.9782,0.968,0.9677,0.9674,0,0,0,0,0,0,0,0,0,0,0,0,0,0.9993,1.0063,0.9934,0.9894,0.9889,0.9839,0.9837,0.9836,0.9782,0.9782,0.9782,0.9782,0.9681,0.9677,0.9673,0.9655,0,0,0.9662,0.966,0,0,0,0,0,0,0,0,0.9997,0.9988,0.9901,0.9896,0.9891,0.9822,0.9846,0.9775,0.9782,0.9823,0.9782,0.9781,0.9727,0.9719,0.9701,0.965,0.9645,0.9661,0.9659,0.9657,0.9656,0,0,0,0,0,0,0,1.0003,0.9992,0.9896,0.9899,0.9894,0.9879,0.9869,0.9832,0.9777,0.9819,0.9815,0.9805,0.9724,0.9705,0.9699,0.9644,0.9661,0.9658,0.9656,0.9654,0.9574,0.9574,0,0,0,0,0,0,1.0015,0.9997,0.9899,0.9893,0.9945,0.9877,0.9865,0.9844,0.9777,0.9767,0.9805,0.9803,0.9712,0.9703,0.9695,0.9669,0.9657,0.9654,0.9651,0.9573,0.9574,0.9574,0,0,0,0,0,0,1.0018,1.0006,0.9903,0.9944,0.993,0.9875,0.9852,0.9843,0.9824,0.9767,0.9756,0.9797,0.9712,0.97,0.9666,0.9665,0.9652,0.9648,0.9573,0.9573,0.9574,0.9618,0,0,0,0,0,0,1.0022,1.0008,1.0001,0.9944,0.9928,0.9876,0.9852,0.9841,0.9818,0.9814,0.9756,0.9746,0.971,0.9672,0.9662,0.9659,0.9645,0.9573,0.9573,0.9574,0.9616,0.9619,0.9622,0,0,0,0,0,1.0027,1.0015,1.0001,0.9989,0.9918,0.9876,0.9867,0.9828,0.9818,0.981,0.9774,0.9748,0.9667,0.9669,0.9657,0.9653,0.9573,0.9573,0.9574,0.9614,0.9619,0.9622,0,0,0,0,0,0,1.0071,1.0007,0.999,0.996,0.9925,0.9867,0.9856,0.9833,0.9797,0.9795,0.9746,0.9733,0.9704,0.9675,0.9678,0.9632,0.9617,0.9615,0.9652,0.9656,0.9659,0.9666,0.9642,0,0,0,0,0,1.0078,1.0051,0.9996,0.9975,0.9958,0.9911,0.9891,0.9864,0.9824,0.9808,0.9769,0.973,0.9696,0.9674,0.9639,0.9612,0.9599,0.9604,0.9607,0.961,0.9608,0.9592,0.9594,0.9575,0.9575,0.9575,0,0,1.009,1.0052,1.0038,0.9983,0.9952,0.9925,0.9898,0.9869,0.9848,0.9803,0.9769,0.9739,0.9692,0.9662,0.9646,0.9637,0.9611,0.961,0.9613,0.961,0.9593,0.9595,0.9597,0.9575,0.9575,0.9575,0,0,1.01,1.0068,1.0048,1.0019,0.9973,0.9942,0.9937,0.9884,0.9863,0.9829,0.9795,0.9768,0.971,0.9679,0.9655,0.9656,0.9631,0.9646,0.9662,0.9647,0.9648,0.9649,0.965,0.965,0.9645,0.9645,0.9645,0,1.0121,1.0079,1.004,1.0014,0.9991,0.9953,0.9931,0.9904,0.9849,0.9833,0.9824,0.9752,0.9718,0.968,0.9681,0.9663,0.9655,0.9652,0.9652,0.9652,0.9653,0.9652,0.9653,0.9647,0.9647,0.9647,0.9646,0,1.0107,1.0079,1.0068,1.0019,0.9994,0.9971,0.9928,0.9908,0.9884,0.9854,0.982,0.9778,0.9734,0.9724,0.9699,0.9682,0.9678,0.9661,0.9644,0.9657,0.9656,0.9656,0.965,0.9649,0.9649,0.9648,0,0,1.0139,1.0071,1.0067,1.0045,0.9993,0.997,0.9945,0.9905,0.9889,0.9853,0.9831,0.9784,0.9769,0.9742,0.9714,0.9701,0.9705,0.9685,0.9683,0.969,0.9684,0.9697,0.9698,0.9688,0.9688,0.9688,0.9688,0,1.0141,1.0096,1.0062,1.0029,1.0003,0.9967,0.9945,0.9911,0.9882,0.9855,0.9823,0.9791,0.9773,0.9757,0.9743,0.9707,0.9703,0.9707,0.9666,0.9665,0.9678,0.9697,0.971,0.9712,0.9687,0.9687,0.9687,0,1.0136,1.0104,1.007,1.0023,1.001,0.9992,0.9953,0.9928,0.9888,0.9868,0.984,0.9812,0.9783,0.9771,0.9731,0.9735,0.9716,0.9697,0.9696,0.9689,0.9676,0.9691,0.9711,0.9712,0.9686,0.9686,0.9686,0,1.0163,1.0111,1.0084,1.0066,1.001,0.9998,0.9974,0.9935,0.9913,0.9879,0.9865,0.9828,0.9807,0.9778,0.974,0.9734,0.9704,0.9688,0.9686,0.9687,0.968,0.9681,0.9698,0.9669,0.9669,0.9669,0.9669,0,1.0168,1.0148,1.0096,1.0079,1.0057,1.0018,0.9996,0.9968,0.9934,0.9911,0.9877,0.9856,0.9807,0.978,0.975,0.9722,0.9712,0.9695,0.9687,0.9698,0.97,0.9684,0.9682,0.9669,0.9669,0.9669,0.9669,0,1.0193,1.0158,1.0126,1.0077,1.0065,1.005,1.0007,0.9989,0.9961,0.9932,0.9923,0.9876,0.9843,0.9803,0.9755,0.9735,0.971,0.9698,0.9724,0.9719,0.9719,0.972,0.9725,0.9724,0.9698,0.9698,0.9699,0,1.0198,1.0183,1.0133,1.0117,1.0094,1.0067,1.0046,1.0007,0.9987,0.9942,0.993,0.9894,0.9863,0.9811,0.9773,0.9737,0.9724,0.9728,0.9718,0.9729,0.9723,0.9725,0.9723,0.9731,0.9731,0.9732,0.9732,0,1.0211,1.0195,1.0167,1.0133,1.011,1.0081,1.005,1.0038,0.9993,0.9972,0.9938,0.9915,0.9868,0.9833,0.9793,0.9766,0.9741,0.9736,0.9733,0.9744,0.9759,0.9751,0.9731,0.9735,0.9735,0.9735,0.9735,0.9735,1.0226,1.0211,1.0175,1.0145,1.0119,1.0092,1.0073,1.0043,1.0015,0.9976,0.9954,0.9922,0.9883,0.9827,0.9802,0.9775,0.9766,0.9762,0.9761,0.9761,0.9764,0.9765,0.9767,0.9767,0.9767,0.9767,0.9767,0,1.0237,1.0213,1.0186,1.0146,1.0123,1.0104,1.007,1.0051,1.0023,0.9991,0.9963,0.9925,0.9891,0.9851,0.9815,0.9801,0.9789,0.9793,0.9793,0.9787,0.9774,0.978,0.9803,0.9803,0.9803,0.9803,0.9803,0.9803,1.024,1.0214,1.0194,1.0156,1.0131,1.01,1.0082,1.0057,1.0031,0.9991,0.9964,0.9939,0.9903,0.9865,0.9833,0.9822,0.981,0.9817,0.9803,0.9791,0.9788,0.9785,0.979,0.9815,0.9815,0.9818,0.9818,0.9818]}]]